Regional Weather Roundup
Issued by NWS New Orleans/Baton Rouge, LA

Home | Current Version | Previous Version | Text Only | Print | Product List | Glossary On
Versions: 1 2 3 4 5 6 7 8 9 10 11 12 13 14 15 16 17 18 19 20 21 22 23 24 25 26 27
000
ASUS44 KLIX 010211
RWRLIX
NEW ORLEANS REGIONAL WEATHER ROUNDUP
NATIONAL WEATHER SERVICE NEW ORLEANS LA
900 PM CDT SAT APR 30 2016

NOTE: "FAIR" INDICATES FEW OR NO CLOUDS BELOW 12,000 FEET WITH NO
      SIGNIFICANT WEATHER AND/OR OBSTRUCTIONS TO VISIBILITY.
      SKY/WX - SKY CONDITION AND SIGNIFICANT WEATHER.
      TMP - AIR TEMPERATURE.     DP    - DEWPOINT TEMPERATURE.
      RH  - RELATIVE HUMIDITY.   PRES  - PRESSURE.
      HI  - HEAT INDEX.          WCI   - WIND CHILL INDEX.

*  THESE STATIONS ARE NOT NWS OR FAA STATIONS AND ARE NOT UNDER
   NWS QUALITY CONTROL.

LAZ038-040-048-061>063-065>067-069-010300-
SOUTHEAST LOUISIANA

CITY           SKY/WX    TMP DP  RH WIND       PRES   REMARKS
N.O. AUDUBON     N/A     70  67  90 MISG        N/A
N.O. INTL ARPT CLOUDY    71  66  84 SE7       29.85R
N.O. LAKEFRONT CLOUDY    68  66  93 SE8       29.85S
N.O. DOWNTOWN*   N/A     71  66  84 S7        29.86S
RESERVE*         N/A     71  67  85 SE6       29.85R
SLIDELL        PTCLDY    71  66  84 SE7       29.86R
BATON ROUGE    PTCLDY    71  66  84 SE6       29.83R
BOOTHVILLE     CLOUDY    68  65  90 SE13G20   29.90F
BELLE CHASSE   MOCLDY    70  66  87 SE7       29.85R
BOGALUSA*        N/A     68  65  88 SE5       29.89R
GALLIANO*      PTCLDY    66  65  94 SE13G18   29.87R
NEW ROADS*     CLOUDY    73  68  86 SE8       29.84R
GONZALES*        N/A     69  69 100 CALM      29.84R
HAMMOND*       MOCLDY    70  64  83 S5        29.85S
HOUMA*         CLOUDY    73  69  90 SE15G22   29.85R
PORT FOURCHON* MOCLDY    73  68  83 E14G22    29.89R

$$

MSZ070-080>082-010300-
SOUTHERN MISSISSIPPI

CITY           SKY/WX    TMP DP  RH WIND       PRES   REMARKS
MCCOMB         MOCLDY    67  66  97 S9        29.85R
GULFPORT       CLOUDY    74  65  73 S10       29.89R
BILOXI         CLOUDY    74  68  80 S12       29.89R
PASCAGOULA     CLOUDY    70  67  90 NW12      29.88R
STENNIS ARPT*  PTCLDY    66  63  88 CALM      29.88R

$$

COASTAL OBSERVATIONS
LAKE AND NEARSHORE STATIONS

STATION/POSITION TIME  TEMP    WIND        PRES    WAVE
                       AIR SEA DIR/SP/G            HT/PER
                 (UTC) (F)     (DEG/KT/KT) (MB)    (FT/S)
PASCAGOULA       0100   71     150/ 17/ 20 1011.3
WAVELAND YACHT   0100   76 75  190/ 16/ 20 1010.8
GRAND ISLE       0100   71 77  120/  7/ 12 1012.2
SOUTHWEST PASS   0100           50/ 15/ 20   N/A
NEW CANAL        0100   71 73  140/  5/ 10 1009.7
SHELL BEACH      0100   72 76  140/ 22/ 25 1010.4

OFFSHORE STATIONS

STATION/POSITION TIME  TEMP    WIND        PRES    WAVE
                       AIR SEA DIR/SP/G            HT/PER
                 (UTC) (F)     (DEG/KT/KT) (MB)    (FT/S)
64 S DAUPHIN ISL 0100   75 74  100/  6/  8 1013.1

$$





USA.gov is the U.S. government's official web portal to all federal, state and local government web resources and services.